| time (UTC) | temp F | wind direction | speed knots | gust knots | rain 1hr in | rain 24hr in | rain mn in | humidity % | barometer mb |
| 20260508013114 | 64 | 159 | 3.5 | 6.1 | 0.00 | 0.00 | 0.00 | 47 | 1007.7 |
| 20260508012650 | 65 | 136 | 3.5 | 5.2 | 0.00 | 0.00 | 0.00 | 46 | 1007.6 |
| 20260508011647 | 66 | 137 | 3.5 | 7.0 | 0.00 | 0.00 | 0.00 | 45 | 1007.5 |
| 20260508011526 | 65 | 135 | 2.6 | 5.2 | 0.00 | 0.00 | 0.00 | 45 | 1007.6 |
| 20260508011148 | 66 | 140 | 3.5 | 7.0 | 0.00 | 0.00 | 0.00 | 44 | 1007.4 |
| 20260508010644 | 66 | 136 | 3.5 | 7.0 | 0.00 | 0.00 | 0.00 | 44 | 1007.3 |
| 20260508010143 | 67 | 132 | 3.5 | 7.0 | 0.00 | 0.00 | 0.00 | 43 | 1007.3 |
| 20260508004134 | 68 | 153 | 2.6 | 6.1 | 0.00 | 0.00 | 0.00 | 41 | 1007.2 |
| 20260508003635 | 69 | 163 | 2.6 | 6.1 | 0.00 | 0.00 | 0.00 | 41 | 1007.2 |
| 20260508003133 | 69 | 159 | 3.5 | 7.8 | 0.00 | 0.00 | 0.00 | 40 | 1007.2 |
| 20260508002634 | 69 | 143 | 3.5 | 7.8 | 0.00 | 0.00 | 0.00 | 40 | 1007.2 |
| 20260508002123 | 69 | 133 | 4.3 | 10.4 | 0.00 | 0.00 | 0.00 | 39 | 1007.2 |
| 20260508001653 | 69 | 153 | 3.5 | 10.4 | 0.00 | 0.00 | 0.00 | 39 | 1007.3 |
| 20260508001624 | 70 | 146 | 5.2 | 10.4 | 0.00 | 0.00 | 0.00 | 39 | 1007.2 |
| 20260508001124 | 70 | 149 | 4.3 | 11.3 | 0.00 | 0.00 | 0.00 | 39 | 1007.3 |
| 20260508000108 | 70 | 155 | 4.3 | 9.6 | 0.00 | 0.00 | 0.00 | 39 | 1007.4 |
| 20260508000028 | 69 | 156 | 3.5 | 9.6 | 0.00 | 0.00 | 0.00 | 39 | 1007.5 |
| 20260507235525 | 70 | 162 | 4.3 | 9.6 | 0.00 | 0.00 | 0.00 | 39 | 1007.4 |
| 20260507234515 | 70 | 138 | 5.2 | 10.4 | 0.00 | 0.00 | 0.00 | 38 | 1007.4 |
| 20260507234013 | 70 | 155 | 5.2 | 10.4 | 0.00 | 0.00 | 0.00 | 38 | 1007.4 |
| 20260507233011 | 71 | 130 | 3.5 | 8.7 | 0.00 | 0.00 | 0.00 | 38 | 1007.5 |
| 20260507232517 | 71 | 184 | 2.6 | 6.1 | 0.00 | 0.00 | 0.00 | 39 | 1007.5 |
| 20260507232009 | 71 | 187 | 3.5 | 8.7 | 0.00 | 0.00 | 0.00 | 37 | 1007.5 |
| 20260507231510 | 71 | 138 | 5.2 | 8.7 | 0.00 | 0.00 | 0.00 | 36 | 1007.6 |
| 20260507231017 | 72 | 216 | 5.2 | 10.4 | 0.00 | 0.00 | 0.00 | 34 | 1007.6 |
| 20260507230505 | 72 | 215 | 5.2 | 10.4 | 0.00 | 0.00 | 0.00 | 34 | 1007.6 |
| 20260507230143 | 71 | 178 | 3.5 | 9.6 | 0.00 | 0.00 | 0.00 | 34 | 1007.8 |
| 20260507230005 | 72 | 147 | 5.2 | 9.6 | 0.00 | 0.00 | 0.00 | 35 | 1007.7 |
| 20260507225503 | 71 | 161 | 5.2 | 12.2 | 0.00 | 0.00 | 0.00 | 36 | 1007.7 |
| 20260507225005 | 71 | 140 | 5.2 | 12.2 | 0.00 | 0.00 | 0.00 | 35 | 1007.7 |
| 20260507224504 | 71 | 123 | 3.5 | 10.4 | 0.00 | 0.00 | 0.00 | 38 | 1008.0 |
| 20260507224003 | 71 | 173 | 6.1 | 13.0 | 0.00 | 0.00 | 0.00 | 37 | 1007.7 |
| 20260507223450 | 72 | 182 | 6.1 | 17.4 | 0.00 | 0.00 | 0.00 | 36 | 1007.9 |
| 20260507222432 | 72 | 186 | 4.3 | 9.6 | 0.00 | 0.00 | 0.00 | 36 | 1008.0 |
| 20260507221932 | 72 | 189 | 5.2 | 12.2 | 0.00 | 0.00 | 0.00 | 36 | 1008.0 |
| 20260507220931 | 72 | 168 | 7.0 | 16.5 | 0.00 | 0.00 | 0.00 | 34 | 1008.3 |
| 20260507220434 | 72 | 122 | 5.2 | 16.5 | 0.00 | 0.00 | 0.00 | 36 | 1008.3 |
| 20260507215933 | 72 | 182 | 6.1 | 13.0 | 0.00 | 0.00 | 0.00 | 37 | 1008.4 |
| 20260507215429 | 71 | 194 | 7.0 | 13.0 | 0.00 | 0.00 | 0.00 | 35 | 1008.4 |
| 20260507214935 | 71 | 138 | 6.1 | 15.6 | 0.00 | 0.00 | 0.00 | 37 | 1008.5 |
| 20260507214600 | 71 | 141 | 5.2 | 15.6 | 0.00 | 0.00 | 0.00 | 37 | 1008.7 |
| 20260507214429 | 71 | 185 | 6.1 | 15.6 | 0.00 | 0.00 | 0.00 | 36 | 1008.6 |
| 20260507213430 | 71 | 170 | 7.8 | 13.0 | 0.00 | 0.00 | 0.00 | 36 | 1008.8 |
| 20260507212431 | 71 | 200 | 8.7 | 19.1 | 0.00 | 0.00 | 0.00 | 37 | 1008.9 |
| 20260507211907 | 71 | 200 | 7.8 | 19.1 | 0.00 | 0.00 | 0.00 | 36 | 1009.0 |
| 20260507211407 | 71 | 187 | 5.2 | 13.0 | 0.00 | 0.00 | 0.00 | 36 | 1009.0 |
| 20260507210906 | 71 | 134 | 7.8 | 18.2 | 0.00 | 0.00 | 0.00 | 37 | 1009.2 |
| 20260507210404 | 71 | 151 | 7.8 | 18.2 | 0.00 | 0.00 | 0.00 | 37 | 1009.2 |
| 20260507205905 | 71 | 205 | 7.0 | 17.4 | 0.00 | 0.00 | 0.00 | 36 | 1009.2 |
| 20260507205401 | 71 | 135 | 8.7 | 17.4 | 0.00 | 0.00 | 0.00 | 38 | 1009.2 |
| 20260507204623 | 70 | 219 | 9.6 | 18.2 | 0.00 | 0.00 | 0.00 | 36 | 1009.6 |
| 20260507204403 | 71 | 179 | 7.0 | 18.2 | 0.00 | 0.00 | 0.00 | 35 | 1009.4 |
| 20260507203859 | 71 | 186 | 5.2 | 17.4 | 0.00 | 0.00 | 0.00 | 38 | 1009.5 |
| 20260507203403 | 70 | 153 | 7.8 | 19.1 | 0.00 | 0.00 | 0.00 | 38 | 1009.5 |
| 20260507202903 | 70 | 149 | 8.7 | 19.1 | 0.00 | 0.00 | 0.00 | 35 | 1009.6 |
| 20260507202355 | 70 | 169 | 7.0 | 15.6 | 0.00 | 0.00 | 0.00 | 37 | 1009.6 |
| 20260507201856 | 70 | 190 | 7.0 | 13.0 | 0.00 | 0.00 | 0.00 | 39 | 1009.7 |
| 20260507200853 | 70 | 178 | 6.1 | 15.6 | 0.00 | 0.00 | 0.00 | 41 | 1009.8 |
| 20260507200354 | 69 | 123 | 7.0 | 15.6 | 0.00 | 0.00 | 0.00 | 40 | 1009.9 |
| 20260507195829 | 69 | 151 | 7.8 | 22.6 | 0.00 | 0.00 | 0.00 | 42 | 1010.0 |
| 20260507195328 | 69 | 190 | 7.8 | 22.6 | 0.00 | 0.00 | 0.00 | 42 | 1009.9 |
| 20260507194831 | 69 | 171 | 7.8 | 17.4 | 0.00 | 0.00 | 0.00 | 39 | 1010.0 |
| 20260507194657 | 68 | 195 | 9.6 | 17.4 | 0.00 | 0.00 | 0.00 | 39 | 1010.4 |
| 20260507194328 | 69 | 142 | 7.0 | 17.4 | 0.00 | 0.00 | 0.00 | 42 | 1010.1 |
| 20260507193827 | 69 | 181 | 7.0 | 15.6 | 0.00 | 0.00 | 0.00 | 39 | 1010.1 |
| 20260507193332 | 69 | 166 | 7.8 | 16.5 | 0.00 | 0.00 | 0.00 | 39 | 1010.2 |
| 20260507193050 | 68 | 209 | 7.0 | 16.5 | 0.00 | 0.00 | 0.00 | 40 | 1010.6 |
| 20260507192823 | 69 | 166 | 7.8 | 18.2 | 0.00 | 0.00 | 0.00 | 42 | 1010.3 |
| 20260507192326 | 68 | 200 | 7.8 | 19.1 | 0.00 | 0.00 | 0.00 | 42 | 1010.3 |
| 20260507191822 | 68 | 211 | 7.0 | 19.1 | 0.00 | 0.00 | 0.00 | 41 | 1010.3 |
| 20260507191316 | 68 | 90 | 7.0 | 13.0 | 0.00 | 0.00 | 0.00 | 42 | 1010.4 |
| 20260507190817 | 68 | 165 | 7.0 | 15.6 | 0.00 | 0.00 | 0.00 | 42 | 1010.5 |
| 20260507190313 | 67 | 176 | 7.0 | 15.6 | 0.00 | 0.00 | 0.00 | 43 | 1010.4 |
| 20260507185812 | 67 | 121 | 7.0 | 13.0 | 0.00 | 0.00 | 0.00 | 42 | 1010.6 |
| 20260507185307 | 67 | 171 | 6.1 | 13.0 | 0.00 | 0.00 | 0.00 | 42 | 1010.7 |
| 20260507184806 | 67 | 142 | 7.0 | 13.9 | 0.00 | 0.00 | 0.00 | 43 | 1010.6 |
| 20260507184304 | 67 | 148 | 7.0 | 13.9 | 0.00 | 0.00 | 0.00 | 43 | 1010.6 |
| 20260507183809 | 67 | 191 | 6.1 | 13.9 | 0.00 | 0.00 | 0.00 | 43 | 1010.8 |
| 20260507183306 | 67 | 148 | 6.1 | 15.6 | 0.00 | 0.00 | 0.00 | 41 | 1010.9 |
| 20260507182753 | 67 | 188 | 6.1 | 15.6 | 0.00 | 0.00 | 0.00 | 43 | 1010.9 |
| 20260507182241 | 67 | 138 | 7.8 | 15.6 | 0.00 | 0.00 | 0.00 | 44 | 1011.1 |
| 20260507181735 | 66 | 165 | 9.6 | 20.9 | 0.00 | 0.00 | 0.00 | 43 | 1011.1 |
| 20260507181608 | 66 | 218 | 9.6 | 20.9 | 0.00 | 0.00 | 0.00 | 42 | 1011.5 |
| 20260507181233 | 66 | 204 | 8.7 | 20.9 | 0.00 | 0.00 | 0.00 | 44 | 1011.2 |
| 20260507180727 | 66 | 180 | 7.0 | 17.4 | 0.00 | 0.00 | 0.00 | 43 | 1011.4 |
| 20260507180222 | 67 | 175 | 7.0 | 16.5 | 0.00 | 0.00 | 0.00 | 45 | 1011.4 |
| 20260507180020 | 66 | 207 | 6.1 | 16.5 | 0.00 | 0.00 | 0.00 | 46 | 1011.8 |
| 20260507175722 | 66 | 210 | 7.0 | 16.5 | 0.00 | 0.00 | 0.00 | 44 | 1011.6 |
| 20260507174720 | 65 | 205 | 7.8 | 18.2 | 0.00 | 0.00 | 0.00 | 46 | 1011.7 |
| 20260507174220 | 65 | 176 | 8.7 | 18.2 | 0.00 | 0.00 | 0.00 | 45 | 1011.8 |
| 20260507173716 | 64 | 205 | 9.6 | 19.1 | 0.00 | 0.00 | 0.00 | 47 | 1011.7 |
| 20260507173224 | 64 | 199 | 11.3 | 20.0 | 0.00 | 0.00 | 0.00 | 45 | 1011.8 |
| 20260507172709 | 64 | 192 | 11.3 | 20.0 | 0.00 | 0.00 | 0.00 | 45 | 1011.9 |
| 20260507172205 | 64 | 206 | 11.3 | 20.0 | 0.00 | 0.00 | 0.00 | 45 | 1011.9 |
| 20260507171702 | 64 | 175 | 10.4 | 20.0 | 0.00 | 0.00 | 0.00 | 46 | 1012.0 |
| 20260507171205 | 64 | 226 | 8.7 | 19.1 | 0.00 | 0.00 | 0.00 | 45 | 1012.1 |
| 20260507170637 | 64 | 178 | 8.7 | 19.1 | 0.00 | 0.00 | 0.00 | 47 | 1012.2 |
| 20260507170137 | 64 | 153 | 9.6 | 20.0 | 0.00 | 0.00 | 0.00 | 46 | 1012.4 |
| 20260507170037 | 63 | 188 | 7.8 | 20.0 | 0.00 | 0.00 | 0.00 | 47 | 1012.7 |
| 20260507165635 | 64 | 195 | 9.6 | 20.0 | 0.00 | 0.00 | 0.00 | 46 | 1012.3 |
| 20260507165137 | 64 | 108 | 10.4 | 21.7 | 0.00 | 0.00 | 0.00 | 46 | 1012.5 |
| 20260507164628 | 63 | 187 | 8.7 | 21.7 | 0.00 | 0.00 | 0.00 | 45 | 1012.7 |
| 20260507164133 | 63 | 127 | 10.4 | 20.0 | 0.00 | 0.00 | 0.00 | 50 | 1012.6 |
| 20260507163625 | 63 | 202 | 10.4 | 20.0 | 0.00 | 0.00 | 0.00 | 46 | 1012.8 |
| 20260507163124 | 63 | 166 | 9.6 | 19.1 | 0.00 | 0.00 | 0.00 | 47 | 1012.7 |
| 20260507162628 | 63 | 186 | 8.7 | 17.4 | 0.00 | 0.00 | 0.00 | 48 | 1012.8 |
| 20260507162121 | 62 | 180 | 8.7 | 17.4 | 0.00 | 0.00 | 0.00 | 48 | 1012.9 |
| 20260507161651 | 62 | 192 | 7.8 | 17.4 | 0.00 | 0.00 | 0.00 | 49 | 1013.3 |
| 20260507161624 | 62 | 186 | 7.8 | 17.4 | 0.00 | 0.00 | 0.00 | 49 | 1012.9 |
| 20260507161122 | 62 | 178 | 8.7 | 17.4 | 0.00 | 0.00 | 0.00 | 50 | 1012.9 |
| 20260507160108 | 61 | 229 | 9.6 | 19.1 | 0.00 | 0.00 | 0.00 | 50 | 1013.0 |
| 20260507160042 | 60 | 209 | 10.4 | 19.1 | 0.00 | 0.00 | 0.00 | 50 | 1013.5 |
| 20260507155541 | 61 | 210 | 9.6 | 19.1 | 0.00 | 0.00 | 0.00 | 51 | 1013.1 |
| 20260507155048 | 60 | 195 | 9.6 | 16.5 | 0.00 | 0.00 | 0.00 | 53 | 1013.1 |
| 20260507154519 | 60 | 211 | 10.4 | 18.2 | 0.00 | 0.00 | 0.00 | 53 | 1013.2 |
| 20260507153957 | 60 | 186 | 9.6 | 18.2 | 0.00 | 0.00 | 0.00 | 52 | 1013.3 |
| 20260507152854 | 60 | 185 | 7.0 | 17.4 | 0.00 | 0.00 | 0.00 | 54 | 1013.4 |
| 20260507152327 | 60 | 240 | 8.7 | 17.4 | 0.00 | 0.00 | 0.00 | 55 | 1013.6 |
| 20260507151814 | 59 | 177 | 8.7 | 16.5 | 0.00 | 0.00 | 0.00 | 55 | 1013.5 |
| 20260507151312 | 59 | 198 | 9.6 | 17.4 | 0.00 | 0.00 | 0.00 | 56 | 1013.6 |
| 20260507150743 | 59 | 185 | 9.6 | 17.4 | 0.00 | 0.00 | 0.00 | 56 | 1013.6 |
| 20260507150217 | 58 | 139 | 10.4 | 18.2 | 0.00 | 0.00 | 0.00 | 56 | 1013.6 |
| 20260507150148 | 58 | 155 | 8.7 | 18.2 | 0.00 | 0.00 | 0.00 | 56 | 1014.1 |
| 20260507145657 | 58 | 192 | 10.4 | 19.1 | 0.00 | 0.00 | 0.00 | 57 | 1013.6 |
| 20260507145124 | 58 | 204 | 10.4 | 19.1 | 0.00 | 0.00 | 0.00 | 56 | 1013.5 |
| 20260507144600 | 57 | 211 | 9.6 | 18.2 | 0.00 | 0.00 | 0.00 | 58 | 1013.6 |
| 20260507144543 | 57 | 221 | 8.7 | 18.2 | 0.00 | 0.00 | 0.00 | 58 | 1014.1 |
| 20260507144033 | 57 | 206 | 10.4 | 20.0 | 0.00 | 0.00 | 0.00 | 59 | 1013.7 |
| 20260507141855 | 56 | 185 | 7.8 | 12.2 | 0.00 | 0.00 | 0.00 | 63 | 1013.7 |
| 20260507140756 | 55 | 171 | 7.8 | 16.5 | 0.00 | 0.00 | 0.00 | 66 | 1013.9 |
| 20260507140238 | 54 | 196 | 7.8 | 16.5 | 0.00 | 0.00 | 0.00 | 66 | 1013.9 |
| 20260507135738 | 54 | 225 | 7.0 | 13.0 | 0.00 | 0.00 | 0.00 | 68 | 1013.9 |
| 20260507135228 | 53 | 190 | 7.0 | 13.0 | 0.00 | 0.00 | 0.00 | 69 | 1013.9 |
| 20260507134723 | 53 | 194 | 7.0 | 13.9 | 0.00 | 0.00 | 0.00 | 69 | 1013.9 |
| 20260507134655 | 52 | 186 | 7.0 | 13.9 | 0.00 | 0.00 | 0.00 | 69 | 1014.4 |
| 20260507133638 | 52 | 175 | 7.0 | 12.2 | 0.00 | 0.00 | 0.00 | 72 | 1013.9 |
| 20260507133122 | 52 | 215 | 6.1 | 12.2 | 0.00 | 0.00 | 0.00 | 73 | 1013.9 |
| 20260507133038 | 51 | 203 | 6.1 | 12.2 | 0.00 | 0.00 | 0.00 | 73 | 1014.5 |
| 20260507132119 | 51 | 206 | 5.2 | 12.2 | 0.00 | 0.00 | 0.00 | 76 | 1014.0 |
| 20260507131621 | 50 | 190 | 5.2 | 9.6 | 0.00 | 0.00 | 0.00 | 77 | 1014.0 |
| 20260507131117 | 50 | 186 | 5.2 | 9.6 | 0.00 | 0.00 | 0.00 | 78 | 1014.0 |
| 20260507130616 | 49 | 173 | 4.3 | 9.6 | 0.00 | 0.00 | 0.00 | 79 | 1014.0 |
| 20260507130124 | 49 | 185 | 4.3 | 8.7 | 0.00 | 0.00 | 0.00 | 79 | 1014.0 |
| 20260507124616 | 48 | 183 | 3.5 | 7.8 | 0.00 | 0.00 | 0.00 | 81 | 1013.9 |
| 20260507123136 | 46 | 147 | 2.6 | 6.1 | 0.00 | 0.00 | 0.00 | 83 | 1014.5 |
| 20260507123114 | 46 | 174 | 2.6 | 6.1 | 0.00 | 0.00 | 0.00 | 83 | 1013.9 |
| 20260507122613 | 46 | 159 | 2.6 | 5.2 | 0.00 | 0.00 | 0.00 | 83 | 1013.9 |
| 20260507122109 | 45 | 153 | 1.7 | 7.0 | 0.00 | 0.00 | 0.00 | 84 | 1013.9 |
| 20260507121615 | 45 | 155 | 1.7 | 5.2 | 0.00 | 0.00 | 0.00 | 84 | 1013.9 |
| 20260507121541 | 44 | 155 | 1.7 | 5.2 | 0.00 | 0.00 | 0.00 | 84 | 1014.5 |
| 20260507121043 | 44 | 169 | 0.9 | 5.2 | 0.00 | 0.00 | 0.00 | 85 | 1014.0 |
| 20260507120034 | 43 | 143 | 0.9 | 3.5 | 0.00 | 0.00 | 0.00 | 85 | 1014.0 |
| 20260507115535 | 43 | 143 | 0.9 | 3.5 | 0.00 | 0.00 | 0.00 | 85 | 1013.9 |
| 20260507114532 | 42 | 180 | 0.9 | 3.5 | 0.00 | 0.00 | 0.00 | 85 | 1013.9 |
| 20260507114029 | 42 | 180 | 1.7 | 4.3 | 0.00 | 0.00 | 0.00 | 85 | 1013.9 |
| 20260507113527 | 42 | 192 | 2.6 | 5.2 | 0.00 | 0.00 | 0.00 | 84 | 1013.9 |
| 20260507113027 | 41 | 189 | 3.5 | 5.2 | 0.00 | 0.00 | 0.00 | 84 | 1014.0 |
| 20260507112525 | 41 | 183 | 2.6 | 5.2 | 0.00 | 0.00 | 0.00 | 84 | 1013.9 |
| 20260507111649 | 41 | 155 | 0.9 | 3.5 | 0.00 | 0.00 | 0.00 | 83 | 1014.4 |
| 20260507111019 | 41 | 155 | 0.0 | 0.9 | 0.00 | 0.00 | 0.00 | 83 | 1013.8 |
| 20260507110517 | 41 | 155 | 0.0 | 3.5 | 0.00 | 0.00 | 0.00 | 83 | 1013.8 |
| 20260507110017 | 41 | 155 | 0.0 | 3.5 | 0.00 | 0.00 | 0.00 | 82 | 1014.3 |
| 20260507110015 | 41 | 155 | 0.0 | 3.5 | 0.00 | 0.00 | 0.00 | 82 | 1013.7 |
| 20260507105516 | 41 | 155 | 0.0 | 4.3 | 0.00 | 0.00 | 0.00 | 82 | 1013.7 |
| 20260507105014 | 41 | 155 | 0.9 | 4.3 | 0.00 | 0.00 | 0.00 | 82 | 1013.7 |
| 20260507104514 | 41 | 155 | 0.9 | 3.5 | 0.00 | 0.00 | 0.00 | 81 | 1013.7 |
| 20260507104015 | 41 | 155 | 0.0 | 3.5 | 0.00 | 0.00 | 0.00 | 81 | 1013.8 |
| 20260507103507 | 41 | 155 | 0.0 | 0.9 | 0.00 | 0.00 | 0.00 | 81 | 1013.7 |
| 20260507102515 | 41 | 155 | 0.0 | 1.7 | 0.00 | 0.00 | 0.00 | 80 | 1013.8 |
| 20260507101657 | 41 | 155 | 0.0 | 1.7 | 0.00 | 0.00 | 0.00 | 81 | 1014.5 |
| 20260507101500 | 41 | 155 | 0.9 | 3.5 | 0.00 | 0.00 | 0.00 | 81 | 1013.9 |
| 20260507100957 | 41 | 155 | 0.9 | 3.5 | 0.00 | 0.00 | 0.00 | 81 | 1013.9 |
| 20260507100455 | 41 | 155 | 0.9 | 3.5 | 0.00 | 0.00 | 0.00 | 80 | 1014.0 |
| 20260507100027 | 41 | 155 | 0.9 | 3.5 | 0.00 | 0.00 | 0.00 | 80 | 1014.6 |
| 20260507095958 | 41 | 155 | 0.9 | 3.5 | 0.00 | 0.00 | 0.00 | 80 | 1014.0 |
| 20260507095456 | 41 | 155 | 1.7 | 3.5 | 0.00 | 0.00 | 0.00 | 80 | 1014.0 |
| 20260507094956 | 41 | 155 | 0.9 | 3.5 | 0.00 | 0.00 | 0.00 | 80 | 1014.0 |
| 20260507094427 | 41 | 155 | 1.7 | 3.5 | 0.00 | 0.00 | 0.00 | 80 | 1014.1 |
| 20260507092406 | 40 | 155 | 1.7 | 3.5 | 0.00 | 0.00 | 0.00 | 79 | 1014.2 |
| 20260507091903 | 40 | 155 | 1.7 | 3.5 | 0.00 | 0.00 | 0.00 | 78 | 1014.2 |
| 20260507091401 | 41 | 155 | 0.9 | 3.5 | 0.00 | 0.00 | 0.00 | 78 | 1014.2 |
| 20260507090900 | 41 | 155 | 0.9 | 3.5 | 0.00 | 0.00 | 0.00 | 77 | 1014.3 |
| 20260507090401 | 41 | 155 | 0.9 | 3.5 | 0.00 | 0.00 | 0.00 | 77 | 1014.3 |
| 20260507090115 | 40 | 155 | 0.0 | 1.7 | 0.00 | 0.00 | 0.00 | 76 | 1014.9 |
| 20260507085858 | 41 | 155 | 0.0 | 1.7 | 0.00 | 0.00 | 0.00 | 76 | 1014.3 |
| 20260507085400 | 41 | 155 | 0.0 | 0.9 | 0.00 | 0.00 | 0.00 | 75 | 1014.3 |
| 20260507084854 | 41 | 155 | 0.0 | 1.7 | 0.00 | 0.00 | 0.00 | 75 | 1014.4 |
| 20260507084354 | 41 | 155 | 0.9 | 1.7 | 0.00 | 0.00 | 0.00 | 76 | 1014.4 |
| 20260507083854 | 41 | 155 | 0.9 | 1.7 | 0.00 | 0.00 | 0.00 | 76 | 1014.4 |
| 20260507083354 | 41 | 155 | 0.0 | 1.7 | 0.00 | 0.00 | 0.00 | 73 | 1014.4 |
| 20260507082852 | 42 | 155 | 0.0 | 0.0 | 0.00 | 0.00 | 0.00 | 71 | 1014.6 |
| 20260507082353 | 42 | 155 | 0.0 | 0.0 | 0.00 | 0.00 | 0.00 | 71 | 1014.6 |
| 20260507081823 | 42 | 155 | 0.0 | 0.9 | 0.00 | 0.00 | 0.00 | 72 | 1014.6 |
| 20260507081325 | 42 | 155 | 0.0 | 0.9 | 0.00 | 0.00 | 0.00 | 72 | 1014.6 |
| 20260507080123 | 42 | 155 | 0.0 | 0.0 | 0.00 | 0.00 | 0.00 | 69 | 1015.1 |
| 20260507075812 | 43 | 155 | 0.0 | 0.0 | 0.00 | 0.00 | 0.00 | 69 | 1014.6 |
| 20260507074812 | 43 | 155 | 0.0 | 0.9 | 0.00 | 0.00 | 0.00 | 69 | 1014.8 |
| 20260507074308 | 43 | 155 | 0.9 | 2.6 | 0.00 | 0.00 | 0.00 | 69 | 1014.8 |
| 20260507072802 | 43 | 154 | 0.9 | 2.6 | 0.00 | 0.00 | 0.00 | 68 | 1014.9 |
| 20260507072301 | 43 | 154 | 0.9 | 4.3 | 0.00 | 0.00 | 0.00 | 68 | 1015.1 |
| 20260507070732 | 43 | 277 | 0.9 | 3.5 | 0.00 | 0.00 | 0.00 | 67 | 1015.1 |
| 20260507070243 | 44 | 277 | 0.0 | 3.5 | 0.00 | 0.00 | 0.00 | 66 | 1015.1 |
| 20260507070131 | 43 | 277 | 0.0 | 3.5 | 0.00 | 0.00 | 0.00 | 66 | 1015.6 |
| 20260507065731 | 44 | 277 | 0.0 | 1.7 | 0.00 | 0.00 | 0.00 | 66 | 1015.2 |
| 20260507065234 | 44 | 277 | 0.0 | 0.9 | 0.00 | 0.00 | 0.00 | 66 | 1015.2 |
| 20260507064728 | 44 | 277 | 0.9 | 1.7 | 0.00 | 0.00 | 0.00 | 65 | 1015.3 |
| 20260507064512 | 44 | 277 | 0.0 | 1.7 | 0.00 | 0.00 | 0.00 | 65 | 1015.6 |
| 20260507064225 | 44 | 277 | 0.9 | 1.7 | 0.00 | 0.00 | 0.00 | 65 | 1015.3 |
| 20260507063725 | 44 | 277 | 0.0 | 1.7 | 0.00 | 0.00 | 0.00 | 65 | 1015.2 |
| 20260507063226 | 44 | 277 | 0.9 | 1.7 | 0.00 | 0.00 | 0.00 | 65 | 1015.3 |
| 20260507062722 | 44 | 277 | 0.9 | 2.6 | 0.00 | 0.00 | 0.00 | 65 | 1015.3 |
| 20260507060736 | 44 | 277 | 1.7 | 3.5 | 0.00 | 0.00 | 0.00 | 65 | 1015.6 |
| 20260507060216 | 44 | 277 | 1.7 | 3.5 | 0.00 | 0.00 | 0.00 | 64 | 1015.6 |
| 20260507055715 | 44 | 277 | 1.7 | 3.5 | 0.00 | 0.00 | 0.00 | 64 | 1015.6 |
| 20260507055216 | 44 | 277 | 1.7 | 4.3 | 0.00 | 0.00 | 0.00 | 64 | 1015.7 |
| 20260507054718 | 44 | 277 | 1.7 | 4.3 | 0.00 | 0.00 | 0.00 | 64 | 1015.7 |
| 20260507054649 | 44 | 277 | 1.7 | 4.3 | 0.00 | 0.00 | 0.00 | 64 | 1016.2 |
| 20260507054149 | 45 | 277 | 0.9 | 4.3 | 0.00 | 0.00 | 0.00 | 63 | 1015.7 |
| 20260507053654 | 45 | 277 | 0.0 | 1.7 | 0.00 | 0.00 | 0.00 | 62 | 1015.7 |
| 20260507053135 | 45 | 277 | 0.0 | 0.9 | 0.00 | 0.00 | 0.00 | 62 | 1015.7 |
| 20260507053022 | 44 | 277 | 0.0 | 0.9 | 0.00 | 0.00 | 0.00 | 62 | 1016.1 |
| 20260507052640 | 45 | 277 | 0.0 | 0.9 | 0.00 | 0.00 | 0.00 | 62 | 1015.7 |
| 20260507051639 | 45 | 277 | 0.0 | 0.0 | 0.00 | 0.00 | 0.00 | 63 | 1015.7 |
| 20260507051133 | 45 | 277 | 0.0 | 0.0 | 0.00 | 0.00 | 0.00 | 63 | 1015.7 |
| 20260507050630 | 45 | 277 | 0.0 | 0.0 | 0.00 | 0.00 | 0.00 | 63 | 1015.8 |
| 20260507045625 | 45 | 277 | 0.0 | 0.0 | 0.00 | 0.00 | 0.00 | 64 | 1015.8 |
| 20260507045126 | 45 | 277 | 0.0 | 0.0 | 0.00 | 0.00 | 0.00 | 64 | 1015.7 |
| 20260507044617 | 45 | 277 | 0.0 | 0.0 | 0.00 | 0.00 | 0.00 | 64 | 1015.8 |
| 20260507044117 | 45 | 277 | 0.0 | 0.0 | 0.00 | 0.00 | 0.00 | 64 | 1015.8 |
| 20260507043114 | 45 | 277 | 0.0 | 0.9 | 0.00 | 0.00 | 0.00 | 63 | 1015.9 |
| 20260507042617 | 45 | 277 | 0.0 | 1.7 | 0.00 | 0.00 | 0.00 | 64 | 1015.9 |
| 20260507042112 | 45 | 277 | 0.0 | 1.7 | 0.00 | 0.00 | 0.00 | 64 | 1015.9 |
| 20260507041554 | 45 | 277 | 0.0 | 0.0 | 0.00 | 0.00 | 0.00 | 63 | 1016.4 |
| 20260507041053 | 45 | 277 | 0.0 | 0.0 | 0.00 | 0.00 | 0.00 | 63 | 1015.9 |
| 20260507040054 | 45 | 277 | 0.9 | 1.7 | 0.00 | 0.00 | 0.00 | 65 | 1016.0 |
| 20260507040003 | 45 | 277 | 0.0 | 1.7 | 0.00 | 0.00 | 0.00 | 65 | 1016.4 |
| 20260507035537 | 45 | 277 | 0.9 | 1.7 | 0.00 | 0.00 | 0.00 | 65 | 1016.0 |
| 20260507034533 | 46 | 277 | 0.9 | 1.7 | 0.00 | 0.00 | 0.00 | 65 | 1016.1 |
| 20260507034047 | 46 | 277 | 0.9 | 1.7 | 0.00 | 0.00 | 0.00 | 63 | 1016.1 |
| 20260507033532 | 46 | 277 | 0.0 | 1.7 | 0.00 | 0.00 | 0.00 | 62 | 1016.0 |
| 20260507033032 | 46 | 277 | 0.0 | 0.9 | 0.00 | 0.00 | 0.00 | 63 | 1016.1 |
| 20260507032530 | 46 | 277 | 0.0 | 0.9 | 0.00 | 0.00 | 0.00 | 62 | 1016.1 |
| 20260507031531 | 46 | 277 | 0.0 | 1.7 | 0.00 | 0.00 | 0.00 | 63 | 1016.0 |
| 20260507031032 | 46 | 277 | 0.9 | 3.5 | 0.00 | 0.00 | 0.00 | 58 | 1016.0 |
| 20260507030527 | 46 | 277 | 1.7 | 3.5 | 0.00 | 0.00 | 0.00 | 56 | 1016.0 |
| 20260507030104 | 46 | 277 | 0.9 | 1.7 | 0.00 | 0.00 | 0.00 | 57 | 1016.4 |
| 20260507030049 | 46 | 277 | 0.9 | 1.7 | 0.00 | 0.00 | 0.00 | 58 | 1016.0 |
| 20260507025029 | 47 | 277 | 0.0 | 0.0 | 0.00 | 0.00 | 0.00 | 54 | 1016.0 |
| 20260507024013 | 47 | 277 | 0.0 | 0.9 | 0.00 | 0.00 | 0.00 | 55 | 1016.0 |
| 20260507023510 | 47 | 277 | 0.9 | 1.7 | 0.00 | 0.00 | 0.00 | 55 | 1016.0 |
| 20260507023008 | 48 | 277 | 1.7 | 3.5 | 0.00 | 0.00 | 0.00 | 57 | 1015.9 |
| 20260507021504 | 49 | 277 | 0.0 | 0.0 | 0.00 | 0.00 | 0.00 | 53 | 1015.8 |
| 20260507021015 | 50 | 277 | 0.0 | 0.0 | 0.00 | 0.00 | 0.00 | 50 | 1015.7 |
| 20260507020500 | 50 | 277 | 0.0 | 0.0 | 0.00 | 0.00 | 0.00 | 48 | 1015.6 |
| 20260507020149 | 50 | 277 | 0.0 | 0.0 | 0.00 | 0.00 | 0.00 | 48 | 1016.0 |
| 20260507015457 | 52 | 277 | 0.0 | 0.0 | 0.00 | 0.00 | 0.00 | 46 | 1015.5 |
| 20260507014525 | 52 | 277 | 0.0 | 0.0 | 0.00 | 0.00 | 0.00 | 42 | 1015.9 |
| 20260507014447 | 53 | 277 | 0.0 | 0.0 | 0.00 | 0.00 | 0.00 | 42 | 1015.5 |
| 20260507013946 | 53 | 276 | 0.0 | 0.0 | 0.00 | 0.00 | 0.00 | 40 | 1015.5 |